Printer-friendly version

IAU Minor Planet Center

Minor Planet Center

(270) Anahita

Orbital Elements

The following orbital elements are taken from MPO 35428
  (270) Anahita
Epoch 2007 Apr. 10.0 TT = JDT 2454200.5                 Goffin
M 271.33680              (2000.0)            P               Q
n   0.30231085     Peri.   80.23394     +0.90394131     +0.42580175
a   2.1987046      Node   254.55581     -0.40676927     +0.82734294
e   0.1506100      Incl.    2.36568     -0.13201842     +0.36632846
P   3.26           H    8.75          G   0.15           U   0
From 719 observations at 63 oppositions, 1887-2002, mean residual 0".55.
An explanation of the orbital elements is available.

These orbital elements are also available in forms suitable for loading into a number of popular planetarium-type software programs.


Ephemeris

The following ephemeris is at intervals of five days. A daily ephemeris covering the same time interval is also available.

Personalized ephemerides for this object (and others) can be generated using the MPES.

Date    TT    R. A. (2000) Decl.     Delta      r     Elong.  Phase     V
 
2007 05 01    16 20.57   -22 52.0    1.259    2.204   152.9    12.0    11.7
2007 05 06    16 16.80   -22 38.6    1.225    2.195   158.7     9.6    11.5
2007 05 11    16 12.36   -22 22.5    1.197    2.187   164.5     7.1    11.4
2007 05 16    16 07.40   -22 03.9    1.174    2.178   170.5     4.4    11.2
2007 05 21    16 02.06   -21 43.1    1.158    2.169   176.6     1.6    11.0
2007 05 26    15 56.57   -21 20.6    1.148    2.160   177.0     1.4    10.9
2007 05 31    15 51.12   -20 57.0    1.144    2.151   171.0     4.2    11.1
2007 06 05    15 45.90   -20 33.2    1.147    2.143   165.0     7.1    11.2
2007 06 10    15 41.10   -20 10.0    1.155    2.134   159.0     9.8    11.3
2007 06 15    15 36.87   -19 48.0    1.169    2.125   153.2    12.5    11.5
2007 06 20    15 33.35   -19 28.2    1.187    2.116   147.5    14.9    11.6
2007 06 25    15 30.65   -19 11.2    1.211    2.107   142.1    17.3    11.7
2007 06 30    15 28.81   -18 57.4    1.239    2.099   136.8    19.4    11.8

Back to Bright Minor Planets

Astronomical Headlines Index

MPC


Valid HTML 4.01!